EDT,Max TemperatureF,Mean TemperatureF,Min TemperatureF,Max Dew PointF,MeanDew PointF,Min DewpointF,Max Humidity, Mean Humidity, Min Humidity, Max Sea Level PressureIn, Mean Sea Level PressureIn, Min Sea Level PressureIn, Max VisibilityMiles, Mean VisibilityMiles, Min VisibilityMiles, Max Wind SpeedMPH, Mean Wind SpeedMPH, Max Gust SpeedMPH,PrecipitationIn, CloudCover, Events, WindDirDegrees
2012-3-1,62,52,41,46,32,28,70,45,27,29.97,29.90,29.82,10,10,10,16,9,24,0.00,0,,258
2012-3-2,75,56,37,61,48,32,100,73,50,29.84,29.66,29.46,10,10,2,30,6,48,0.00,5,Rain-Thunderstorm,204
2012-3-3,51,42,33,36,28,19,93,58,30,29.94,29.86,29.76,10,10,10,18,9,24,0.00,2,,282
2012-3-4,44,36,28,32,23,19,86,57,37,29.97,29.93,29.90,10,10,10,20,7,29,0.00,6,Rain,286
2012-3-5,41,37,33,32,25,18,87,63,39,30.46,30.21,29.79,10,10,10,22,8,38,0.00,6,Rain,308
2012-3-6,68,47,26,25,20,12,86,44,14,30.48,30.41,30.32,10,10,10,13,4,21,0.00,0,,178
2012-3-7,66,58,50,41,35,21,58,43,28,30.44,30.37,30.27,10,10,10,22,12,32,0.00,1,,199
2012-3-8,60,52,42,55,49,39,100,78,59,30.27,30.19,30.08,10,9,4,17,10,28,0.00,6,Rain,206
2012-3-9,55,44,33,37,29,16,93,62,22,30.45,30.39,30.30,10,10,10,14,5,23,0.00,1,,352
2012-3-10,59,44,30,27,22,19,75,42,22,30.52,30.45,30.36,10,10,10,9,5,,0.00,0,,68
2012-3-11,68,50,32,39,32,23,93,55,21,30.47,30.37,30.28,10,10,10,9,2,16,0.00,0,,180
2012-3-12,64,60,55,52,47,37,72,62,48,30.28,30.22,30.14,10,10,10,20,7,26,0.00,7,,190
2012-3-13,75,67,59,59,54,46,88,68,36,30.20,30.16,30.12,10,10,10,15,6,18,0.00,5,,227
2012-3-14,77,62,46,55,49,46,100,73,34,30.27,30.22,30.18,10,10,7,12,2,16,0.00,0,,253
2012-3-15,78,66,53,61,52,46,82,65,44,30.27,30.22,30.14,10,10,10,16,3,20,0.00,2,Thunderstorm,238
2012-3-16,64,58,53,59,56,54,100,88,77,30.25,30.19,30.16,10,10,7,8,3,,0.00,5,Rain-Thunderstorm,178
2012-3-17,77,64,53,61,57,54,100,84,50,30.26,30.20,30.14,10,10,7,7,2,,0.00,5,Rain-Thunderstorm,169
2012-3-18,78,68,57,59,56,54,94,73,42,30.27,30.21,30.12,10,10,7,12,6,,0.00,4,Rain-Thunderstorm,199
2012-3-19,80,66,51,55,52,46,100,62,32,30.21,30.15,30.09,10,10,10,12,2,17,0.00,1,,248
2012-3-20,82,68,55,55,52,46,94,56,30,30.18,30.11,30.05,10,10,10,7,1,,0.00,1,,138
2012-3-21,82,68,55,55,53,48,94,61,30,30.23,30.16,30.09,10,10,10,9,1,,0.00,1,,188
2012-3-22,78,68,57,63,54,50,94,65,39,30.20,30.15,30.08,10,10,7,10,2,10,0.00,2,Rain,176
2012-3-23,71,66,60,63,60,59,100,86,64,30.12,30.02,29.87,10,10,7,13,2,21,0.00,7,Rain,176
2012-3-24,64,57,50,55,49,43,100,78,52,29.91,29.88,29.83,10,10,7,17,5,23,0.00,5,Rain-Thunderstorm,247
2012-3-25,68,56,44,50,47,43,100,78,46,29.96,29.93,29.89,10,9,3,13,2,22,0.00,3,,343
2012-3-26,64,56,48,54,52,46,100,81,59,30.16,30.10,30.03,10,9,1,16,4,21,0.00,4,,21
2012-3-27,75,58,41,39,33,28,70,46,23,30.27,30.21,30.09,10,10,10,7,4,,0.00,0,,56
2012-3-28,78,68,59,54,50,45,68,49,39,30.10,30.03,29.95,10,10,10,22,8,29,0.00,2,,239
2012-3-29,73,62,51,54,47,36,100,61,27,30.06,30.00,29.94,10,10,4,7,2,,0.00,2,,16
2012-3-30,77,64,50,59,50,43,87,69,47,29.97,29.93,29.85,10,10,10,20,2,23,0.00,1,Thunderstorm,239
2012-3-31,71,62,53,59,56,50,100,83,46,29.91,29.87,29.80,10,9,1,15,3,20,0.00,6,Rain,270